Time,TemperatureF,DewpointF,PressureIn,WindDirection,WindDirectionDegrees,WindSpeedMPH,WindSpeedGustMPH,Humidity,HourlyPrecipIn,Conditions,Clouds,dailyrainin,SoftwareType,DateUTC
2013-02-08 00:02:00,23.7,10.4,30.21,West,278,2.0,2.0,56,0.00,,,0.00,meteohub,2013-02-08 07:02:00,
2013-02-08 00:07:00,23.7,10.4,30.21,West,276,0.0,3.0,56,0.00,,,0.00,meteohub,2013-02-08 07:07:00,
2013-02-08 00:12:00,23.9,11.3,30.21,WSW,248,0.0,3.0,58,0.00,,,0.00,meteohub,2013-02-08 07:12:00,
2013-02-08 00:17:00,23.7,11.1,30.21,SSW,198,0.0,3.0,58,0.00,,,0.00,meteohub,2013-02-08 07:17:00,
2013-02-08 00:22:00,23.4,11.1,30.21,South,184,1.0,2.0,59,0.00,,,0.00,meteohub,2013-02-08 07:22:00,
2013-02-08 00:28:00,23.4,11.5,30.21,SSW,212,1.0,1.0,60,0.00,,,0.00,meteohub,2013-02-08 07:28:00,
2013-02-08 00:33:00,23.0,11.1,30.21,SSE,150,1.0,2.0,60,0.00,,,0.00,meteohub,2013-02-08 07:33:00,
2013-02-08 00:39:00,22.8,10.9,30.21,SSW,207,1.0,2.0,60,0.00,,,0.00,meteohub,2013-02-08 07:39:00,
2013-02-08 00:44:00,22.6,11.3,30.20,SE,145,0.0,2.0,61,0.00,,,0.00,meteohub,2013-02-08 07:44:00,
2013-02-08 00:50:00,22.8,11.3,30.20,SSW,197,1.0,2.0,61,0.00,,,0.00,meteohub,2013-02-08 07:50:00,
2013-02-08 00:55:00,22.6,11.3,30.20,SSW,201,0.0,1.0,61,0.00,,,0.00,meteohub,2013-02-08 07:55:00,
2013-02-08 01:01:00,22.6,11.3,30.20,WSW,246,1.0,1.0,61,0.00,,,0.00,meteohub,2013-02-08 08:01:00,
2013-02-08 01:06:00,22.8,11.3,30.19,SW,229,0.0,2.0,61,0.00,,,0.00,meteohub,2013-02-08 08:06:00,
2013-02-08 01:12:00,22.6,11.3,30.19,SSW,193,2.0,2.0,61,0.00,,,0.00,meteohub,2013-02-08 08:12:00,
2013-02-08 01:17:00,22.5,11.1,30.19,SSE,151,1.0,2.0,61,0.00,,,0.00,meteohub,2013-02-08 08:17:00,
2013-02-08 01:22:00,22.5,11.1,30.19,SE,139,2.0,2.0,61,0.00,,,0.00,meteohub,2013-02-08 08:22:00,
2013-02-08 01:27:00,22.5,11.1,30.19,ESE,115,0.0,3.0,61,0.00,,,0.00,meteohub,2013-02-08 08:27:00,
2013-02-08 01:32:00,21.9,9.0,30.18,ESE,116,0.0,3.0,57,0.00,,,0.00,meteohub,2013-02-08 08:32:00,
2013-02-08 01:37:00,21.2,8.8,30.19,NNE,25,1.0,3.0,58,0.00,,,0.00,meteohub,2013-02-08 08:37:00,
2013-02-08 01:43:00,20.7,8.6,30.18,NNE,29,1.0,3.0,59,0.00,,,0.00,meteohub,2013-02-08 08:43:00,
2013-02-08 01:48:00,20.5,8.1,30.18,NNE,15,0.0,3.0,58,0.00,,,0.00,meteohub,2013-02-08 08:48:00,
2013-02-08 01:53:00,19.9,8.2,30.18,NNW,342,0.0,3.0,60,0.00,,,0.00,meteohub,2013-02-08 08:53:00,
2013-02-08 01:59:00,19.8,7.3,30.18,North,4,0.0,2.0,58,0.00,,,0.00,meteohub,2013-02-08 08:59:00,
2013-02-08 02:04:00,19.8,7.0,30.18,NNE,25,0.0,1.0,57,0.00,,,0.00,meteohub,2013-02-08 09:04:00,
2013-02-08 02:10:00,20.5,8.4,30.18,SE,135,0.0,8.0,59,0.00,,,0.00,meteohub,2013-02-08 09:10:00,
2013-02-08 02:15:00,20.1,7.3,30.18,ENE,68,1.0,8.0,57,0.00,,,0.00,meteohub,2013-02-08 09:15:00,
2013-02-08 02:21:00,19.0,7.2,30.18,North,4,0.0,8.0,59,0.00,,,0.00,meteohub,2013-02-08 09:21:00,
2013-02-08 02:26:00,18.7,8.2,30.18,NNE,26,2.0,3.0,63,0.00,,,0.00,meteohub,2013-02-08 09:26:00,
2013-02-08 02:32:00,18.7,7.9,30.19,NNE,27,0.0,2.0,62,0.00,,,0.00,meteohub,2013-02-08 09:32:00,
2013-02-08 02:37:00,18.1,7.3,30.19,North,11,1.0,2.0,62,0.00,,,0.00,meteohub,2013-02-08 09:37:00,
2013-02-08 02:42:00,18.0,7.2,30.19,NNE,20,1.0,2.0,62,0.00,,,0.00,meteohub,2013-02-08 09:42:00,
2013-02-08 02:47:00,17.4,7.0,30.18,NNE,20,0.0,2.0,63,0.00,,,0.00,meteohub,2013-02-08 09:47:00,
2013-02-08 02:52:00,17.4,7.3,30.18,North,9,0.0,2.0,64,0.00,,,0.00,meteohub,2013-02-08 09:52:00,
2013-02-08 02:57:00,17.4,7.3,30.18,NW,321,1.0,2.0,64,0.00,,,0.00,meteohub,2013-02-08 09:57:00,
2013-02-08 03:02:00,17.4,7.0,30.18,NW,321,1.0,2.0,63,0.00,,,0.00,meteohub,2013-02-08 10:02:00,
2013-02-08 03:07:00,17.4,7.0,30.18,NW,316,1.0,2.0,63,0.00,,,0.00,meteohub,2013-02-08 10:07:00,
2013-02-08 03:12:00,17.4,7.0,30.17,West,276,1.0,2.0,63,0.00,,,0.00,meteohub,2013-02-08 10:12:00,
2013-02-08 03:17:00,18.1,7.3,30.17,WNW,283,0.0,3.0,62,0.00,,,0.00,meteohub,2013-02-08 10:17:00,
2013-02-08 03:22:00,18.1,7.0,30.18,WNW,283,0.0,3.0,61,0.00,,,0.00,meteohub,2013-02-08 10:22:00,
2013-02-08 03:27:00,18.5,7.3,30.18,North,9,1.0,3.0,61,0.00,,,0.00,meteohub,2013-02-08 10:27:00,
2013-02-08 03:32:00,18.5,7.3,30.18,NNW,334,2.0,2.0,61,0.00,,,0.00,meteohub,2013-02-08 10:32:00,
2013-02-08 03:37:00,18.1,7.0,30.17,NE,49,0.0,2.0,61,0.00,,,0.00,meteohub,2013-02-08 10:37:00,
2013-02-08 03:42:00,17.6,6.8,30.18,WNW,301,0.0,4.0,62,0.00,,,0.00,meteohub,2013-02-08 10:42:00,
2013-02-08 03:47:00,17.8,7.3,30.17,ENE,77,1.0,4.0,63,0.00,,,0.00,meteohub,2013-02-08 10:47:00,
2013-02-08 03:52:00,18.1,7.3,30.17,East,98,0.0,4.0,62,0.00,,,0.00,meteohub,2013-02-08 10:52:00,
2013-02-08 03:57:00,18.0,6.8,30.17,ENE,65,0.0,2.0,61,0.00,,,0.00,meteohub,2013-02-08 10:57:00,
2013-02-08 04:02:00,17.4,6.6,30.17,ENE,65,0.0,2.0,62,0.00,,,0.00,meteohub,2013-02-08 11:02:00,
2013-02-08 04:07:00,16.7,6.3,30.17,NNE,24,2.0,2.0,63,0.00,,,0.00,meteohub,2013-02-08 11:07:00,
2013-02-08 04:12:00,16.0,5.9,30.17,NNW,330,1.0,2.0,64,0.00,,,0.00,meteohub,2013-02-08 11:12:00,
2013-02-08 04:17:00,15.4,6.1,30.16,NW,316,1.0,4.0,66,0.00,,,0.00,meteohub,2013-02-08 11:17:00,
2013-02-08 04:22:00,16.2,6.8,30.16,NNW,330,2.0,4.0,66,0.00,,,0.00,meteohub,2013-02-08 11:22:00,
2013-02-08 04:27:00,16.7,7.0,30.16,NNW,328,2.0,4.0,65,0.00,,,0.00,meteohub,2013-02-08 11:27:00,
2013-02-08 04:32:00,17.2,7.2,30.16,East,93,0.0,3.0,64,0.00,,,0.00,meteohub,2013-02-08 11:32:00,
2013-02-08 04:37:00,17.4,7.3,30.16,East,91,0.0,3.0,64,0.00,,,0.00,meteohub,2013-02-08 11:37:00,
2013-02-08 04:42:00,18.3,8.2,30.16,SSE,150,0.0,5.0,64,0.00,,,0.00,meteohub,2013-02-08 11:42:00,
2013-02-08 04:47:00,18.3,7.2,30.16,ENE,60,0.0,5.0,61,0.00,,,0.00,meteohub,2013-02-08 11:47:00,
2013-02-08 04:52:00,18.1,8.1,30.16,ENE,74,1.0,5.0,64,0.00,,,0.00,meteohub,2013-02-08 11:52:00,
2013-02-08 04:57:00,18.7,8.2,30.16,ESE,110,1.0,3.0,63,0.00,,,0.00,meteohub,2013-02-08 11:57:00,
2013-02-08 05:02:00,19.6,9.3,30.15,SSE,161,6.0,6.0,64,0.00,,,0.00,meteohub,2013-02-08 12:02:00,
2013-02-08 05:07:00,20.5,9.9,30.15,SSE,157,3.0,12.0,63,0.00,,,0.00,meteohub,2013-02-08 12:07:00,
2013-02-08 05:12:00,20.7,9.7,30.15,ESE,122,4.0,12.0,62,0.00,,,0.00,meteohub,2013-02-08 12:12:00,
2013-02-08 05:17:00,20.7,9.7,30.16,ESE,107,0.0,12.0,62,0.00,,,0.00,meteohub,2013-02-08 12:17:00,
2013-02-08 05:22:00,20.5,9.9,30.15,SE,132,2.0,7.0,63,0.00,,,0.00,meteohub,2013-02-08 12:22:00,
2013-02-08 05:27:00,20.7,10.0,30.16,SE,139,1.0,6.0,63,0.00,,,0.00,meteohub,2013-02-08 12:27:00,
2013-02-08 05:32:00,21.0,10.8,30.15,SSW,195,7.0,7.0,64,0.00,,,0.00,meteohub,2013-02-08 12:32:00,
2013-02-08 05:37:00,21.9,11.7,30.16,SSW,212,5.0,11.0,64,0.00,,,0.00,meteohub,2013-02-08 12:37:00,
2013-02-08 05:42:00,22.3,11.7,30.16,SE,146,4.0,11.0,63,0.00,,,0.00,meteohub,2013-02-08 12:42:00,
2013-02-08 05:47:00,21.7,11.1,30.16,WSW,240,5.0,12.0,63,0.00,,,0.00,meteohub,2013-02-08 12:47:00,
2013-02-08 05:52:00,22.3,12.7,30.16,SSW,208,8.0,12.0,66,0.00,,,0.00,meteohub,2013-02-08 12:52:00,
2013-02-08 05:57:00,22.8,12.7,30.16,SE,131,4.0,12.0,65,0.00,,,0.00,meteohub,2013-02-08 12:57:00,
2013-02-08 06:02:00,22.8,12.6,30.17,SSE,150,4.0,12.0,64,0.00,,,0.00,meteohub,2013-02-08 13:02:00,
2013-02-08 06:07:00,22.3,12.0,30.17,SE,130,5.0,12.0,64,0.00,,,0.00,meteohub,2013-02-08 13:07:00,
2013-02-08 06:12:00,21.7,11.5,30.17,South,174,4.0,12.0,64,0.00,,,0.00,meteohub,2013-02-08 13:12:00,
2013-02-08 06:17:00,21.0,10.8,30.16,South,179,2.0,10.0,64,0.00,,,0.00,meteohub,2013-02-08 13:17:00,
2013-02-08 06:22:00,20.5,10.9,30.16,SE,127,5.0,7.0,66,0.00,,,0.00,meteohub,2013-02-08 13:22:00,
2013-02-08 06:27:00,20.5,12.2,30.16,SE,136,1.0,9.0,70,0.00,,,0.00,meteohub,2013-02-08 13:27:00,
2013-02-08 06:32:00,21.0,12.4,30.16,SE,131,3.0,17.0,69,0.00,,,0.00,meteohub,2013-02-08 13:32:00,
2013-02-08 06:37:00,19.6,8.2,30.16,NNE,32,2.0,17.0,61,0.00,,,0.00,meteohub,2013-02-08 13:37:00,
2013-02-08 06:42:00,17.4,7.3,30.16,SSW,198,0.0,17.0,64,0.00,,,0.00,meteohub,2013-02-08 13:42:00,
2013-02-08 06:47:00,18.0,12.0,30.15,SSE,150,4.0,5.0,77,0.00,,,0.00,meteohub,2013-02-08 13:47:00,
2013-02-08 06:52:00,21.0,14.9,30.14,SE,134,4.0,7.0,77,0.00,,,0.00,meteohub,2013-02-08 13:52:00,
2013-02-08 06:57:00,22.3,14.4,30.14,SSE,153,4.0,7.0,71,0.00,,,0.00,meteohub,2013-02-08 13:57:00,
2013-02-08 07:02:00,22.5,13.8,30.14,ENE,68,3.0,7.0,69,0.00,,,0.00,meteohub,2013-02-08 14:02:00,
2013-02-08 07:07:00,21.7,10.8,30.14,ESE,122,1.0,6.0,62,0.00,,,0.00,meteohub,2013-02-08 14:07:00,
2013-02-08 07:12:00,19.9,9.3,30.14,NNE,33,0.0,6.0,63,0.00,,,0.00,meteohub,2013-02-08 14:12:00,
2013-02-08 07:17:00,19.8,11.8,30.13,SE,145,1.0,5.0,71,0.00,,,0.00,meteohub,2013-02-08 14:17:00,
2013-02-08 07:22:00,21.0,13.8,30.14,ESE,120,1.0,3.0,73,0.00,,,0.00,meteohub,2013-02-08 14:22:00,
2013-02-08 07:27:00,22.1,14.5,30.13,ESE,123,2.0,6.0,72,0.00,,,0.00,meteohub,2013-02-08 14:27:00,
2013-02-08 07:32:00,22.3,13.6,30.13,NE,37,2.0,7.0,69,0.00,,,0.00,meteohub,2013-02-08 14:32:00,
2013-02-08 07:37:00,19.9,9.3,30.13,NE,35,1.0,7.0,63,0.00,,,0.00,meteohub,2013-02-08 14:37:00,
2013-02-08 07:42:00,18.7,9.5,30.13,NNW,328,0.0,5.0,67,0.00,,,0.00,meteohub,2013-02-08 14:42:00,
2013-02-08 07:47:00,18.9,10.4,30.13,NNE,30,0.0,5.0,69,0.00,,,0.00,meteohub,2013-02-08 14:47:00,
2013-02-08 07:52:00,19.0,10.2,30.13,NNW,338,1.0,4.0,68,0.00,,,0.00,meteohub,2013-02-08 14:52:00,
2013-02-08 07:57:00,19.0,10.6,30.14,NW,317,0.0,2.0,69,0.00,,,0.00,meteohub,2013-02-08 14:57:00,
2013-02-08 08:02:00,20.3,13.6,30.13,SE,141,0.0,2.0,75,0.00,,,0.00,meteohub,2013-02-08 15:02:00,
2013-02-08 08:07:00,21.7,14.7,30.13,SE,145,2.0,5.0,74,0.00,,,0.00,meteohub,2013-02-08 15:07:00,
2013-02-08 08:12:00,22.8,15.4,30.13,ESE,110,4.0,8.0,73,0.00,,,0.00,meteohub,2013-02-08 15:12:00,
2013-02-08 08:17:00,23.2,14.9,30.12,ESE,120,3.0,8.0,70,0.00,,,0.00,meteohub,2013-02-08 15:17:00,
2013-02-08 08:22:00,23.7,15.4,30.12,SE,136,4.0,8.0,70,0.00,,,0.00,meteohub,2013-02-08 15:22:00,
2013-02-08 08:27:00,24.3,15.3,30.12,SSE,150,5.0,7.0,68,0.00,,,0.00,meteohub,2013-02-08 15:27:00,
2013-02-08 08:32:00,24.8,15.4,30.12,SSE,168,2.0,7.0,67,0.00,,,0.00,meteohub,2013-02-08 15:32:00,
2013-02-08 08:37:00,25.7,16.0,30.11,SE,144,4.0,8.0,66,0.00,,,0.00,meteohub,2013-02-08 15:37:00,
2013-02-08 08:42:00,26.6,16.3,30.11,ESE,113,4.0,8.0,65,0.00,,,0.00,meteohub,2013-02-08 15:42:00,
2013-02-08 08:47:00,27.0,16.0,30.10,ESE,120,4.0,8.0,63,0.00,,,0.00,meteohub,2013-02-08 15:47:00,
2013-02-08 08:52:00,27.3,16.3,30.10,SW,216,3.0,9.0,63,0.00,,,0.00,meteohub,2013-02-08 15:52:00,
2013-02-08 08:57:00,28.0,17.1,30.10,SE,127,5.0,9.0,63,0.00,,,0.00,meteohub,2013-02-08 15:57:00,
2013-02-08 09:02:00,29.5,17.2,30.09,SSE,167,8.0,9.0,60,0.00,,,0.00,meteohub,2013-02-08 16:02:00,
2013-02-08 09:07:00,30.9,18.0,30.09,SW,218,7.0,13.0,58,0.00,,,0.00,meteohub,2013-02-08 16:07:00,
2013-02-08 09:12:00,31.6,17.2,30.09,ESE,120,4.0,17.0,55,0.00,,,0.00,meteohub,2013-02-08 16:12:00,
2013-02-08 09:17:00,31.5,17.2,30.08,SSE,159,7.0,17.0,55,0.00,,,0.00,meteohub,2013-02-08 16:17:00,
2013-02-08 09:22:00,31.5,17.2,30.08,SE,129,9.0,17.0,55,0.00,,,0.00,meteohub,2013-02-08 16:22:00,
2013-02-08 09:27:00,31.6,17.2,30.08,South,176,12.0,17.0,55,0.00,,,0.00,meteohub,2013-02-08 16:27:00,
2013-02-08 09:32:00,31.6,17.2,30.07,South,169,16.0,17.0,55,0.00,,,0.00,meteohub,2013-02-08 16:32:00,
2013-02-08 09:37:00,31.5,17.6,30.07,SE,131,16.0,23.0,56,0.00,,,0.00,meteohub,2013-02-08 16:37:00,
2013-02-08 09:42:00,31.3,17.4,30.06,West,281,13.0,23.0,56,0.00,,,0.00,meteohub,2013-02-08 16:42:00,
2013-02-08 09:47:00,31.1,17.6,30.06,South,191,6.0,24.0,57,0.00,,,0.00,meteohub,2013-02-08 16:47:00,
2013-02-08 09:52:00,31.3,17.8,30.06,SSE,165,17.0,27.0,57,0.00,,,0.00,meteohub,2013-02-08 16:52:00,
2013-02-08 09:57:00,32.0,18.5,30.06,SW,224,10.0,27.0,57,0.00,,,0.00,meteohub,2013-02-08 16:57:00,
2013-02-08 10:02:00,32.7,18.3,30.06,NW,314,7.0,18.0,55,0.00,,,0.00,meteohub,2013-02-08 17:02:00,
2013-02-08 10:08:00,33.6,18.3,30.05,SSE,165,10.0,22.0,53,0.00,,,0.00,meteohub,2013-02-08 17:08:00,
2013-02-08 10:13:00,34.0,18.7,30.04,SE,132,12.0,23.0,53,0.00,,,0.00,meteohub,2013-02-08 17:13:00,
2013-02-08 10:19:00,34.2,18.9,30.04,SSE,167,12.0,30.0,53,0.00,,,0.00,meteohub,2013-02-08 17:19:00,
2013-02-08 10:24:00,34.3,18.5,30.04,SW,214,12.0,30.0,52,0.00,,,0.00,meteohub,2013-02-08 17:24:00,
2013-02-08 10:30:00,35.2,18.5,30.04,SSE,148,4.0,30.0,50,0.00,,,0.00,meteohub,2013-02-08 17:30:00,
2013-02-08 10:35:00,35.4,18.7,30.03,South,172,11.0,24.0,50,0.00,,,0.00,meteohub,2013-02-08 17:35:00,
2013-02-08 10:41:00,35.1,18.3,30.03,SSE,152,10.0,24.0,50,0.00,,,0.00,meteohub,2013-02-08 17:41:00,
2013-02-08 10:46:00,35.1,18.3,30.03,SSE,155,21.0,24.0,50,0.00,,,0.00,meteohub,2013-02-08 17:46:00,
2013-02-08 10:52:00,34.9,18.1,30.02,South,173,19.0,25.0,50,0.00,,,0.00,meteohub,2013-02-08 17:52:00,
2013-02-08 10:57:00,35.1,17.8,30.01,South,191,18.0,25.0,49,0.00,,,0.00,meteohub,2013-02-08 17:57:00,
2013-02-08 11:02:00,35.4,18.1,30.01,SSE,160,16.0,25.0,49,0.00,,,0.00,meteohub,2013-02-08 18:02:00,
2013-02-08 11:07:00,35.4,18.1,30.01,South,191,17.0,25.0,49,0.00,,,0.00,meteohub,2013-02-08 18:07:00,
2013-02-08 11:12:00,35.4,18.1,30.01,South,170,8.0,26.0,49,0.00,,,0.00,meteohub,2013-02-08 18:12:00,
2013-02-08 11:17:00,35.4,17.6,30.00,SSW,193,15.0,26.0,48,0.00,,,0.00,meteohub,2013-02-08 18:17:00,
2013-02-08 11:22:00,36.0,18.1,30.00,SSE,160,13.0,32.0,48,0.00,,,0.00,meteohub,2013-02-08 18:22:00,
2013-02-08 11:27:00,36.0,17.6,29.99,South,177,19.0,32.0,47,0.00,,,0.00,meteohub,2013-02-08 18:27:00,
2013-02-08 11:32:00,36.0,17.6,29.99,ESE,117,13.0,32.0,47,0.00,,,0.00,meteohub,2013-02-08 18:32:00,
2013-02-08 11:38:00,36.1,17.4,29.98,South,171,16.0,30.0,46,0.00,,,0.00,meteohub,2013-02-08 18:38:00,
2013-02-08 11:43:00,36.3,17.6,29.98,SW,235,15.0,30.0,46,0.00,,,0.00,meteohub,2013-02-08 18:43:00,
2013-02-08 11:49:00,36.3,17.1,29.97,SSE,165,11.0,26.0,45,0.00,,,0.00,meteohub,2013-02-08 18:49:00,
2013-02-08 11:54:00,36.9,17.1,29.97,South,174,11.0,32.0,44,0.00,,,0.00,meteohub,2013-02-08 18:54:00,
2013-02-08 12:00:00,37.6,17.1,29.96,SSE,166,25.0,32.0,43,0.00,,,0.00,meteohub,2013-02-08 19:00:00,
2013-02-08 12:05:00,36.9,16.5,29.96,SSE,155,19.0,33.0,43,0.00,,,0.00,meteohub,2013-02-08 19:05:00,
2013-02-08 12:11:00,36.9,16.5,29.96,South,172,19.0,33.0,43,0.00,,,0.00,meteohub,2013-02-08 19:11:00,
2013-02-08 12:16:00,37.0,16.7,29.95,South,174,20.0,33.0,43,0.00,,,0.00,meteohub,2013-02-08 19:16:00,
2013-02-08 12:22:00,37.2,16.2,29.94,South,172,23.0,31.0,42,0.00,,,0.00,meteohub,2013-02-08 19:22:00,
2013-02-08 12:27:00,37.0,16.7,29.94,SE,125,11.0,31.0,43,0.00,,,0.00,meteohub,2013-02-08 19:27:00,
2013-02-08 12:32:00,37.2,16.2,29.93,South,191,5.0,31.0,42,0.00,,,0.00,meteohub,2013-02-08 19:32:00,
2013-02-08 12:37:00,37.8,16.2,29.93,SSE,153,25.0,31.0,41,0.00,,,0.00,meteohub,2013-02-08 19:37:00,
2013-02-08 12:42:00,37.9,16.3,29.93,South,180,16.0,30.0,41,0.00,,,0.00,meteohub,2013-02-08 19:42:00,
2013-02-08 12:47:00,37.9,16.9,29.92,South,179,17.0,30.0,42,0.00,,,0.00,meteohub,2013-02-08 19:47:00,
2013-02-08 12:52:00,37.8,16.7,29.92,SSE,165,10.0,29.0,42,0.00,,,0.00,meteohub,2013-02-08 19:52:00,
2013-02-08 12:57:00,37.9,16.3,29.91,SE,140,9.0,29.0,41,0.00,,,0.00,meteohub,2013-02-08 19:57:00,
2013-02-08 13:02:00,37.8,16.7,29.91,NNE,22,13.0,32.0,42,0.00,,,0.00,meteohub,2013-02-08 20:02:00,
2013-02-08 13:07:00,37.8,16.2,29.90,South,188,16.0,32.0,41,0.00,,,0.00,meteohub,2013-02-08 20:07:00,
2013-02-08 13:12:00,37.8,16.7,29.90,ESE,121,22.0,32.0,42,0.00,,,0.00,meteohub,2013-02-08 20:12:00,
2013-02-08 13:17:00,38.1,17.1,29.90,South,181,21.0,30.0,42,0.00,,,0.00,meteohub,2013-02-08 20:17:00,
2013-02-08 13:22:00,38.1,17.1,29.89,SSE,156,17.0,30.0,42,0.00,,,0.00,meteohub,2013-02-08 20:22:00,
2013-02-08 13:27:00,38.1,17.1,29.89,SE,145,22.0,30.0,42,0.00,,,0.00,meteohub,2013-02-08 20:27:00,
2013-02-08 13:33:00,38.7,17.1,29.88,SSE,148,9.0,30.0,41,0.00,,,0.00,meteohub,2013-02-08 20:33:00,
2013-02-08 13:38:00,38.8,16.5,29.87,South,181,22.0,29.0,40,0.00,,,0.00,meteohub,2013-02-08 20:38:00,
2013-02-08 13:44:00,38.8,16.0,29.87,SSW,194,10.0,32.0,39,0.00,,,0.00,meteohub,2013-02-08 20:44:00,
2013-02-08 13:49:00,39.0,16.2,29.86,SSE,158,11.0,32.0,39,0.00,,,0.00,meteohub,2013-02-08 20:49:00,
2013-02-08 13:55:00,39.4,15.8,29.86,SSW,210,9.0,32.0,38,0.00,,,0.00,meteohub,2013-02-08 20:55:00,
2013-02-08 14:00:00,39.4,16.5,29.86,South,170,13.0,34.0,39,0.00,,,0.00,meteohub,2013-02-08 21:00:00,
2013-02-08 14:06:00,39.4,17.1,29.85,East,85,15.0,34.0,40,0.00,,,0.00,meteohub,2013-02-08 21:06:00,
2013-02-08 14:11:00,39.7,16.2,29.85,SSE,167,13.0,34.0,38,0.00,,,0.00,meteohub,2013-02-08 21:11:00,
2013-02-08 14:17:00,39.4,16.5,29.85,SSE,160,21.0,30.0,39,0.00,,,0.00,meteohub,2013-02-08 21:17:00,
2013-02-08 14:22:00,39.4,15.8,29.85,ESE,105,12.0,32.0,38,0.00,,,0.00,meteohub,2013-02-08 21:22:00,
2013-02-08 14:27:00,38.7,15.8,29.85,SSW,198,14.0,32.0,39,0.00,,,0.00,meteohub,2013-02-08 21:27:00,
2013-02-08 14:32:00,37.9,15.8,29.85,SSW,208,15.0,32.0,40,0.00,,,0.00,meteohub,2013-02-08 21:32:00,
2013-02-08 14:37:00,37.8,15.6,29.84,SSE,165,12.0,28.0,40,0.00,,,0.00,meteohub,2013-02-08 21:37:00,
2013-02-08 14:42:00,37.8,15.6,29.84,South,183,17.0,25.0,40,0.00,,,0.00,meteohub,2013-02-08 21:42:00,
2013-02-08 14:47:00,37.9,15.8,29.84,SE,138,6.0,24.0,40,0.00,,,0.00,meteohub,2013-02-08 21:47:00,
2013-02-08 14:52:00,38.7,15.8,29.84,South,184,5.0,24.0,39,0.00,,,0.00,meteohub,2013-02-08 21:52:00,
2013-02-08 14:57:00,39.2,15.8,29.84,West,273,8.0,24.0,38,0.00,,,0.00,meteohub,2013-02-08 21:57:00,
2013-02-08 15:02:00,39.4,15.3,29.84,East,87,12.0,24.0,37,0.00,,,0.00,meteohub,2013-02-08 22:02:00,
2013-02-08 15:07:00,39.0,14.4,29.84,SE,135,9.0,24.0,36,0.00,,,0.00,meteohub,2013-02-08 22:07:00,
2013-02-08 15:12:00,38.8,14.2,29.84,South,184,9.0,24.0,36,0.00,,,0.00,meteohub,2013-02-08 22:12:00,
2013-02-08 15:17:00,38.8,14.2,29.84,SSE,148,10.0,22.0,36,0.00,,,0.00,meteohub,2013-02-08 22:17:00,
2013-02-08 15:22:00,38.7,14.5,29.84,SSE,158,10.0,21.0,37,0.00,,,0.00,meteohub,2013-02-08 22:22:00,
2013-02-08 15:27:00,38.5,14.5,29.84,SSE,153,7.0,23.0,37,0.00,,,0.00,meteohub,2013-02-08 22:27:00,
2013-02-08 15:32:00,38.5,14.5,29.84,SW,225,10.0,23.0,37,0.00,,,0.00,meteohub,2013-02-08 22:32:00,
2013-02-08 15:37:00,38.5,14.5,29.84,SSE,159,9.0,23.0,37,0.00,,,0.00,meteohub,2013-02-08 22:37:00,
2013-02-08 15:42:00,38.1,14.2,29.83,SSW,212,9.0,18.0,37,0.00,,,0.00,meteohub,2013-02-08 22:42:00,
2013-02-08 15:47:00,37.9,14.0,29.83,SSW,211,10.0,22.0,37,0.00,,,0.00,meteohub,2013-02-08 22:47:00,
2013-02-08 15:52:00,37.9,14.0,29.83,SSW,197,8.0,22.0,37,0.00,,,0.00,meteohub,2013-02-08 22:52:00,
2013-02-08 15:57:00,37.9,13.3,29.83,NNW,347,11.0,22.0,36,0.00,,,0.00,meteohub,2013-02-08 22:57:00,
2013-02-08 16:02:00,37.9,13.3,29.83,SE,138,7.0,22.0,36,0.00,,,0.00,meteohub,2013-02-08 23:02:00,
2013-02-08 16:07:00,37.9,13.3,29.83,SE,136,4.0,22.0,36,0.00,,,0.00,meteohub,2013-02-08 23:07:00,
2013-02-08 16:12:00,37.9,13.3,29.83,South,169,6.0,22.0,36,0.00,,,0.00,meteohub,2013-02-08 23:12:00,
2013-02-08 16:17:00,37.8,13.3,29.82,SSE,150,6.0,21.0,36,0.00,,,0.00,meteohub,2013-02-08 23:17:00,
2013-02-08 16:22:00,37.8,13.8,29.82,SE,131,15.0,21.0,37,0.00,,,0.00,meteohub,2013-02-08 23:22:00,
2013-02-08 16:27:00,37.6,13.6,29.83,SSE,167,11.0,24.0,37,0.00,,,0.00,meteohub,2013-02-08 23:27:00,
2013-02-08 16:32:00,37.4,13.5,29.82,SSW,194,13.0,24.0,37,0.00,,,0.00,meteohub,2013-02-08 23:32:00,
2013-02-08 16:37:00,37.4,14.2,29.82,South,188,12.0,24.0,38,0.00,,,0.00,meteohub,2013-02-08 23:37:00,
2013-02-08 16:42:00,37.2,14.0,29.82,South,186,10.0,20.0,38,0.00,,,0.00,meteohub,2013-02-08 23:42:00,
2013-02-08 16:47:00,37.4,13.5,29.82,SSW,204,5.0,20.0,37,0.00,,,0.00,meteohub,2013-02-08 23:47:00,
2013-02-08 16:53:00,37.6,13.6,29.82,South,187,7.0,20.0,37,0.00,,,0.00,meteohub,2013-02-08 23:53:00,
2013-02-08 16:58:00,37.4,13.5,29.81,SSE,150,9.0,18.0,37,0.00,,,0.00,meteohub,2013-02-08 23:58:00,
2013-02-08 17:04:00,37.4,13.5,29.81,SSW,201,12.0,18.0,37,0.00,,,0.00,meteohub,2013-02-09 00:04:00,
2013-02-08 17:09:00,37.6,13.1,29.82,WSW,243,5.0,18.0,36,0.00,,,0.00,meteohub,2013-02-09 00:09:00,
2013-02-08 17:15:00,37.6,13.1,29.81,SSE,150,5.0,17.0,36,0.00,,,0.00,meteohub,2013-02-09 00:15:00,
2013-02-08 17:20:00,37.6,12.4,29.82,SW,221,6.0,17.0,35,0.00,,,0.00,meteohub,2013-02-09 00:20:00,
2013-02-08 17:26:00,37.6,12.4,29.82,South,187,11.0,17.0,35,0.00,,,0.00,meteohub,2013-02-09 00:26:00,
2013-02-08 17:31:00,37.6,11.7,29.82,NW,315,5.0,17.0,34,0.00,,,0.00,meteohub,2013-02-09 00:31:00,
2013-02-08 17:37:00,37.4,11.7,29.82,SW,225,6.0,17.0,34,0.00,,,0.00,meteohub,2013-02-09 00:37:00,
2013-02-08 17:42:00,37.2,11.5,29.82,SW,221,8.0,17.0,34,0.00,,,0.00,meteohub,2013-02-09 00:42:00,
2013-02-08 17:47:00,37.2,11.5,29.82,South,174,3.0,16.0,34,0.00,,,0.00,meteohub,2013-02-09 00:47:00,
2013-02-08 17:52:00,37.0,11.3,29.82,SSE,166,1.0,16.0,34,0.00,,,0.00,meteohub,2013-02-09 00:52:00,
2013-02-08 17:57:00,36.7,11.7,29.83,West,262,3.0,16.0,35,0.00,,,0.00,meteohub,2013-02-09 00:57:00,
2013-02-08 18:02:00,36.5,11.5,29.83,SSW,195,7.0,16.0,35,0.00,,,0.00,meteohub,2013-02-09 01:02:00,
2013-02-08 18:07:00,36.3,11.8,29.83,South,188,10.0,18.0,36,0.00,,,0.00,meteohub,2013-02-09 01:07:00,
2013-02-08 18:12:00,36.3,11.8,29.83,SSW,204,3.0,18.0,36,0.00,,,0.00,meteohub,2013-02-09 01:12:00,
2013-02-08 18:17:00,36.1,12.4,29.83,SSE,155,3.0,18.0,37,0.00,,,0.00,meteohub,2013-02-09 01:17:00,
2013-02-08 18:22:00,36.0,12.7,29.83,SSW,193,7.0,17.0,38,0.00,,,0.00,meteohub,2013-02-09 01:22:00,
2013-02-08 18:27:00,36.1,13.6,29.83,SSW,200,14.0,23.0,39,0.00,,,0.00,meteohub,2013-02-09 01:27:00,
2013-02-08 18:32:00,36.0,14.0,29.83,SW,216,11.0,23.0,40,0.00,,,0.00,meteohub,2013-02-09 01:32:00,
2013-02-08 18:37:00,36.0,15.1,29.83,South,176,11.0,23.0,42,0.00,,,0.00,meteohub,2013-02-09 01:37:00,
2013-02-08 18:42:00,35.6,15.8,29.84,SSE,166,8.0,22.0,44,0.00,,,0.00,meteohub,2013-02-09 01:42:00,
2013-02-08 18:47:00,35.2,16.0,29.84,SSW,195,11.0,22.0,45,0.00,,,0.00,meteohub,2013-02-09 01:47:00,
2013-02-08 18:52:00,35.1,16.9,29.84,SSE,159,7.0,18.0,47,0.00,,,0.00,meteohub,2013-02-09 01:52:00,
2013-02-08 18:57:00,34.9,17.2,29.83,SSE,159,15.0,20.0,48,0.00,,,0.00,meteohub,2013-02-09 01:57:00,
2013-02-08 19:02:00,34.5,17.2,29.84,South,173,12.0,20.0,49,0.00,,,0.00,meteohub,2013-02-09 02:02:00,
2013-02-08 19:07:00,34.3,17.6,29.84,South,179,8.0,20.0,50,0.00,,,0.00,meteohub,2013-02-09 02:07:00,
2013-02-08 19:12:00,34.2,17.4,29.84,SSE,166,14.0,21.0,50,0.00,,,0.00,meteohub,2013-02-09 02:12:00,
2013-02-08 19:17:00,34.2,18.0,29.83,SW,215,16.0,25.0,51,0.00,,,0.00,meteohub,2013-02-09 02:17:00,
2013-02-08 19:22:00,34.0,17.8,29.84,ESE,118,12.0,26.0,51,0.00,,,0.00,meteohub,2013-02-09 02:22:00,
2013-02-08 19:27:00,33.6,17.8,29.83,South,175,13.0,26.0,52,0.00,,,0.00,meteohub,2013-02-09 02:27:00,
2013-02-08 19:32:00,33.6,17.8,29.84,South,180,7.0,26.0,52,0.00,,,0.00,meteohub,2013-02-09 02:32:00,
2013-02-08 19:37:00,33.4,18.1,29.83,SW,224,11.0,25.0,53,0.00,,,0.00,meteohub,2013-02-09 02:37:00,
2013-02-08 19:42:00,33.3,18.0,29.83,SE,143,8.0,25.0,53,0.00,,,0.00,meteohub,2013-02-09 02:42:00,
2013-02-08 19:47:00,33.4,18.1,29.84,SSW,198,5.0,25.0,53,0.00,,,0.00,meteohub,2013-02-09 02:47:00,
2013-02-08 19:52:00,33.4,18.1,29.83,WNW,297,7.0,17.0,53,0.00,,,0.00,meteohub,2013-02-09 02:52:00,
2013-02-08 19:57:00,33.3,18.5,29.83,SE,145,6.0,17.0,54,0.00,,,0.00,meteohub,2013-02-09 02:57:00,
2013-02-08 20:02:00,33.3,18.5,29.83,ESE,120,5.0,19.0,54,0.00,,,0.00,meteohub,2013-02-09 03:02:00,
2013-02-08 20:07:00,33.1,18.3,29.83,SW,225,7.0,19.0,54,0.00,,,0.00,meteohub,2013-02-09 03:07:00,
2013-02-08 20:12:00,33.1,18.7,29.83,WSW,245,7.0,19.0,55,0.00,,,0.00,meteohub,2013-02-09 03:12:00,
2013-02-08 20:17:00,32.9,18.5,29.83,South,179,7.0,19.0,55,0.00,,,0.00,meteohub,2013-02-09 03:17:00,
2013-02-08 20:22:00,32.7,18.3,29.83,West,270,8.0,15.0,55,0.00,,,0.00,meteohub,2013-02-09 03:22:00,
2013-02-08 20:27:00,32.7,18.7,29.83,SSE,166,7.0,15.0,56,0.00,,,0.00,meteohub,2013-02-09 03:27:00,
2013-02-08 20:32:00,32.5,18.5,29.83,South,176,14.0,15.0,56,0.00,,,0.00,meteohub,2013-02-09 03:32:00,
2013-02-08 20:37:00,32.5,18.5,29.84,SSW,210,14.0,18.0,56,0.00,,,0.00,meteohub,2013-02-09 03:37:00,
2013-02-08 20:43:00,32.5,19.0,29.83,SW,225,8.0,18.0,57,0.00,,,0.00,meteohub,2013-02-09 03:43:00,
2013-02-08 20:48:00,32.4,19.2,29.83,South,176,8.0,20.0,58,0.00,,,0.00,meteohub,2013-02-09 03:48:00,
2013-02-08 20:54:00,31.8,19.6,29.83,SSE,158,9.0,20.0,60,0.00,,,0.00,meteohub,2013-02-09 03:54:00,
2013-02-08 20:59:00,31.5,19.9,29.83,SSE,155,5.0,20.0,62,0.00,,,0.00,meteohub,2013-02-09 03:59:00,
2013-02-08 21:05:00,31.1,19.9,29.83,SSW,201,3.0,15.0,63,0.00,,,0.00,meteohub,2013-02-09 04:05:00,
2013-02-08 21:11:00,30.7,19.9,29.83,SSW,203,4.0,15.0,64,0.00,,,0.00,meteohub,2013-02-09 04:11:00,
2013-02-08 21:16:00,30.6,19.8,29.83,SSW,207,2.0,13.0,64,0.00,,,0.00,meteohub,2013-02-09 04:16:00,
2013-02-08 21:22:00,30.6,19.8,29.83,SW,236,4.0,15.0,64,0.00,,,0.00,meteohub,2013-02-09 04:22:00,
2013-02-08 21:27:00,30.6,19.8,29.83,South,172,7.0,15.0,64,0.00,,,0.00,meteohub,2013-02-09 04:27:00,
2013-02-08 21:32:00,30.7,19.9,29.83,South,170,10.0,13.0,64,0.00,,,0.00,meteohub,2013-02-09 04:32:00,
2013-02-08 21:37:00,30.9,19.8,29.83,SE,136,7.0,17.0,63,0.00,,,0.00,meteohub,2013-02-09 04:37:00,
2013-02-08 21:43:00,31.3,19.8,29.82,South,176,8.0,17.0,62,0.00,,,0.00,meteohub,2013-02-09 04:43:00,
2013-02-08 21:48:00,31.1,19.9,29.82,SW,228,11.0,17.0,63,0.00,,,0.00,meteohub,2013-02-09 04:48:00,
2013-02-08 21:54:00,31.1,19.9,29.82,South,191,13.0,17.0,63,0.00,,,0.00,meteohub,2013-02-09 04:54:00,
2013-02-08 21:59:00,31.3,20.1,29.82,SE,141,3.0,17.0,63,0.00,,,0.00,meteohub,2013-02-09 04:59:00,
2013-02-08 22:00:00,31.3,20.1,29.82,SSW,210,8.0,17.0,63,0.00,,,0.00,meteohub,2013-02-09 05:00:00,
2013-02-08 22:01:00,31.3,20.5,29.82,South,188,6.0,17.0,64,0.00,,,0.00,meteohub,2013-02-09 05:01:00,
2013-02-08 22:06:00,31.3,20.5,29.82,SSE,157,6.0,14.0,64,0.00,,,0.00,meteohub,2013-02-09 05:06:00,
2013-02-08 22:08:00,31.3,20.5,29.82,South,176,12.0,14.0,64,0.00,,,0.00,meteohub,2013-02-09 05:08:00,
2013-02-08 22:13:00,31.5,20.3,29.81,WSW,255,4.0,14.0,63,0.00,,,0.00,meteohub,2013-02-09 05:13:00,
2013-02-08 22:19:00,31.5,20.7,29.81,SW,218,11.0,14.0,64,0.00,,,0.00,meteohub,2013-02-09 05:19:00,
2013-02-08 22:24:00,31.6,20.8,29.81,West,269,5.0,19.0,64,0.00,,,0.00,meteohub,2013-02-09 05:24:00,
2013-02-08 22:30:00,31.6,21.2,29.81,SW,225,8.0,19.0,65,0.00,,,0.00,meteohub,2013-02-09 05:30:00,
2013-02-08 22:35:00,31.5,20.7,29.81,West,276,2.0,15.0,64,0.00,,,0.00,meteohub,2013-02-09 05:35:00,
2013-02-08 22:41:00,31.5,20.3,29.81,SW,215,6.0,15.0,63,0.00,,,0.00,meteohub,2013-02-09 05:41:00,
2013-02-08 22:46:00,31.5,19.9,29.80,SW,226,11.0,15.0,62,0.00,,,0.00,meteohub,2013-02-09 05:46:00,
2013-02-08 22:52:00,31.5,19.9,29.81,South,178,15.0,15.0,62,0.00,,,0.00,meteohub,2013-02-09 05:52:00,
2013-02-08 22:57:00,31.6,19.8,29.81,SSE,160,9.0,18.0,61,0.00,,,0.00,meteohub,2013-02-09 05:57:00,
2013-02-08 23:02:00,31.6,20.1,29.81,SSE,153,4.0,18.0,62,0.00,,,0.00,meteohub,2013-02-09 06:02:00,
2013-02-08 23:07:00,31.5,20.3,29.80,SSE,167,2.0,18.0,63,0.00,,,0.00,meteohub,2013-02-09 06:07:00,
2013-02-08 23:12:00,31.5,20.7,29.80,SE,136,5.0,14.0,64,0.00,,,0.00,meteohub,2013-02-09 06:12:00,
2013-02-08 23:17:00,31.5,20.7,29.80,NNE,23,7.0,13.0,64,0.00,,,0.00,meteohub,2013-02-09 06:17:00,
2013-02-08 23:22:00,31.3,20.5,29.80,SW,221,8.0,13.0,64,0.00,,,0.00,meteohub,2013-02-09 06:22:00,
2013-02-08 23:27:00,31.3,20.5,29.80,SW,222,5.0,13.0,64,0.00,,,0.00,meteohub,2013-02-09 06:27:00,
2013-02-08 23:32:00,31.3,20.5,29.80,SSE,159,6.0,12.0,64,0.00,,,0.00,meteohub,2013-02-09 06:32:00,
2013-02-08 23:37:00,31.3,20.5,29.79,NE,35,11.0,14.0,64,0.00,,,0.00,meteohub,2013-02-09 06:37:00,
2013-02-08 23:42:00,30.9,20.1,29.79,SW,219,12.0,14.0,64,0.00,,,0.00,meteohub,2013-02-09 06:42:00,
2013-02-08 23:47:00,30.7,20.3,29.79,SSE,167,4.0,14.0,65,0.00,,,0.00,meteohub,2013-02-09 06:47:00,
2013-02-08 23:52:00,30.6,20.1,29.79,South,190,6.0,14.0,65,0.00,,,0.00,meteohub,2013-02-09 06:52:00,
2013-02-08 23:57:00,30.4,20.3,29.79,SSW,211,11.0,14.0,66,0.00,,,0.00,meteohub,2013-02-09 06:57:00,